Stündliche Wetter Bolshie Moshki

Heute, 29 Juli, Donnerstag

Zeit Temperatur Niederschläge Wind Luftdruck Luftfeuchtigkeit
00:00 +15°C° 0 mm 1 m/S 733 mmHg 98%
01:00 +15°C° 0 mm 1 m/S 733 mmHg 98%
02:00 +15°C° 0 mm 1 m/S 733 mmHg 98%
03:00 +16°C° 0 mm 1 m/S 733 mmHg 98%
04:00 +16°C° 0 mm 1 m/S 733 mmHg 98%
05:00 +16°C° 0 mm 1 m/S 732 mmHg 98%
06:00 +19°C° 0 mm 1 m/S 732 mmHg 91%
07:00 +20°C° 0 mm 2 m/S 732 mmHg 84%
08:00 +23°C° 0 mm 2 m/S 733 mmHg 78%
09:00 +24°C° 0 mm 2 m/S 733 mmHg 69%
10:00 +25°C° 0 mm 3 m/S 733 mmHg 60%
11:00 +27°C° 0 mm 3 m/S 733 mmHg 52%
12:00 +27°C° 0 mm 3 m/S 732 mmHg 50%
13:00 +27°C° 0 mm 3 m/S 732 mmHg 48%
14:00 +26°C° 0 mm 4 m/S 732 mmHg 50%
15:00 +26°C° 0 mm 3 m/S 732 mmHg 52%
16:00 +26°C° 0 mm 2 m/S 732 mmHg 53%
17:00 +25°C° 0 mm 2 m/S 732 mmHg 55%
18:00 +24°C° 0 mm 2 m/S 731 mmHg 62%
19:00 +22°C° 0 mm 1 m/S 731 mmHg 69%
20:00 +20°C° 0 mm 1 m/S 731 mmHg 77%
21:00 +20°C° 0.1 mm 1 m/S 731 mmHg 81%
22:00 +19°C° 0.1 mm 1 m/S 731 mmHg 85%
23:00 +18°C° 0.1 mm 1 m/S 731 mmHg 89%

Morgen, 30 Juli, Freitag

Zeit Temperatur Niederschläge Wind Luftdruck Luftfeuchtigkeit
00:00 +18°C° 0 mm 1 m/S 731 mmHg 91%
01:00 +18°C° 0 mm 1 m/S 731 mmHg 93%
02:00 +18°C° 0 mm 1 m/S 731 mmHg 95%
03:00 +18°C° 0.1 mm 1 m/S 731 mmHg 96%
04:00 +18°C° 0.1 mm 1 m/S 731 mmHg 96%
05:00 +18°C° 0.1 mm 1 m/S 731 mmHg 97%
06:00 +18°C° 0.2 mm 2 m/S 731 mmHg 94%
07:00 +19°C° 0.2 mm 2 m/S 731 mmHg 91%
08:00 +20°C° 0.2 mm 2 m/S 731 mmHg 89%
09:00 +21°C° 0.3 mm 3 m/S 731 mmHg 80%
10:00 +22°C° 0.3 mm 3 m/S 731 mmHg 71%
11:00 +24°C° 0.3 mm 3 m/S 731 mmHg 63%
12:00 +25°C° 0.1 mm 3 m/S 730 mmHg 59%
13:00 +25°C° 0.1 mm 4 m/S 730 mmHg 54%
14:00 +25°C° 0.1 mm 4 m/S 730 mmHg 50%
15:00 +25°C° 0 mm 4 m/S 730 mmHg 52%
16:00 +23°C° 0 mm 4 m/S 730 mmHg 54%
17:00 +23°C° 0 mm 4 m/S 730 mmHg 55%
18:00 +21°C° 0 mm 3 m/S 730 mmHg 63%
19:00 +19°C° 0 mm 3 m/S 730 mmHg 71%
20:00 +17°C° 0 mm 2 m/S 730 mmHg 78%
21:00 +17°C° 0 mm 2 m/S 730 mmHg 78%
22:00 +16°C° 0 mm 2 m/S 729 mmHg 78%
23:00 +15°C° 0 mm 2 m/S 729 mmHg 77%

übermorgen, 31 Juli, Samstag

Zeit Temperatur Niederschläge Wind Luftdruck Luftfeuchtigkeit
00:00 +14°C° 0 mm 3 m/S 729 mmHg 75%
01:00 +14°C° 0 mm 3 m/S 729 mmHg 73%
02:00 +14°C° 0 mm 3 m/S 729 mmHg 71%
03:00 +14°C° 0 mm 4 m/S 729 mmHg 72%
04:00 +14°C° 0 mm 4 m/S 729 mmHg 73%
05:00 +15°C° 0 mm 4 m/S 729 mmHg 73%
06:00 +15°C° 0.1 mm 5 m/S 729 mmHg 72%
07:00 +16°C° 0.1 mm 5 m/S 729 mmHg 71%
08:00 +16°C° 0.1 mm 5 m/S 729 mmHg 70%
09:00 +17°C° 0.1 mm 5 m/S 729 mmHg 69%
10:00 +19°C° 0.1 mm 5 m/S 729 mmHg 69%
11:00 +19°C° 0.1 mm 5 m/S 729 mmHg 68%
12:00 +20°C° 0.1 mm 5 m/S 730 mmHg 64%
13:00 +22°C° 0.1 mm 5 m/S 730 mmHg 60%
14:00 +23°C° 0.1 mm 5 m/S 730 mmHg 56%
15:00 +22°C° 0.1 mm 5 m/S 731 mmHg 59%
16:00 +22°C° 0.1 mm 5 m/S 731 mmHg 62%
17:00 +22°C° 0.1 mm 4 m/S 731 mmHg 66%
18:00 +20°C° 0.1 mm 3 m/S 731 mmHg 74%
19:00 +19°C° 0.1 mm 3 m/S 732 mmHg 82%
20:00 +17°C° 0.1 mm 2 m/S 732 mmHg 91%
21:00 +17°C° 0 mm 2 m/S 732 mmHg 93%
22:00 +16°C° 0 mm 2 m/S 732 mmHg 95%
23:00 +16°C° 0 mm 2 m/S 732 mmHg 96%

1 August, Sonntag

Zeit Temperatur Niederschläge Wind Luftdruck Luftfeuchtigkeit
00:00 +16°C° 0 mm 2 m/S 732 mmHg 96%
01:00 +16°C° 0 mm 1 m/S 732 mmHg 96%
02:00 +16°C° 0 mm 1 m/S 732 mmHg 95%
03:00 +16°C° 0 mm 2 m/S 733 mmHg 93%
04:00 +16°C° 0 mm 2 m/S 733 mmHg 92%
05:00 +16°C° 0 mm 2 m/S 733 mmHg 90%
06:00 +17°C° 0 mm 2 m/S 733 mmHg 86%
07:00 +17°C° 0 mm 3 m/S 733 mmHg 82%
08:00 +18°C° 0 mm 3 m/S 733 mmHg 79%
09:00 +18°C° 0 mm 3 m/S 733 mmHg 79%
10:00 +18°C° 0 mm 3 m/S 733 mmHg 79%
11:00 +19°C° 0 mm 3 m/S 733 mmHg 78%
12:00 +20°C° 0 mm 3 m/S 733 mmHg 73%
13:00 +22°C° 0 mm 3 m/S 732 mmHg 68%
14:00 +24°C° 0 mm 3 m/S 732 mmHg 62%
15:00 +24°C° 0 mm 3 m/S 732 mmHg 65%
16:00 +23°C° 0 mm 2 m/S 732 mmHg 67%
17:00 +23°C° 0 mm 2 m/S 732 mmHg 69%
18:00 +21°C° 0 mm 2 m/S 732 mmHg 76%
19:00 +20°C° 0 mm 2 m/S 732 mmHg 84%
20:00 +18°C° 0 mm 2 m/S 732 mmHg 91%
21:00 +18°C° 0 mm 2 m/S 732 mmHg 92%
22:00 +17°C° 0 mm 2 m/S 732 mmHg 94%
23:00 +17°C° 0 mm 2 m/S 732 mmHg 95%

2 August, Montag

Zeit Temperatur Niederschläge Wind Luftdruck Luftfeuchtigkeit
00:00 +16°C° 0 mm 2 m/S 732 mmHg 94%
01:00 +16°C° 0 mm 2 m/S 733 mmHg 92%
02:00 +16°C° 0 mm 2 m/S 733 mmHg 91%
03:00 +16°C° 0 mm 1 m/S 733 mmHg 89%
04:00 +16°C° 0 mm 1 m/S 732 mmHg 88%
05:00 +16°C° 0 mm 1 m/S 732 mmHg 86%
06:00 +19°C° 0 mm 1 m/S 732 mmHg 78%
07:00 +21°C° 0 mm 1 m/S 732 mmHg 69%
08:00 +23°C° 0 mm 1 m/S 732 mmHg 61%
09:00 +22°C° 0.1 mm 1 m/S 732 mmHg 65%
10:00 +21°C° 0.1 mm 2 m/S 732 mmHg 69%
11:00 +20°C° 0.1 mm 2 m/S 732 mmHg 73%
12:00 +20°C° 0.3 mm 2 m/S 731 mmHg 77%
13:00 +20°C° 0.3 mm 3 m/S 730 mmHg 82%
14:00 +19°C° 0.3 mm 3 m/S 730 mmHg 86%
15:00 +20°C° 1.1 mm 3 m/S 729 mmHg 87%
16:00 +21°C° 1.1 mm 3 m/S 729 mmHg 89%
17:00 +21°C° 1.1 mm 3 m/S 728 mmHg 91%
18:00 +20°C° 1.5 mm 3 m/S 728 mmHg 93%
19:00 +19°C° 1.5 mm 2 m/S 728 mmHg 95%
20:00 +18°C° 1.5 mm 2 m/S 727 mmHg 97%
21:00 +18°C° 0.4 mm 2 m/S 727 mmHg 98%
22:00 +17°C° 0.4 mm 2 m/S 728 mmHg 98%
23:00 +16°C° 0.4 mm 2 m/S 728 mmHg 98%

3 August, Dienstag

Zeit Temperatur Niederschläge Wind Luftdruck Luftfeuchtigkeit
00:00 +16°C° 0.1 mm 3 m/S 728 mmHg 98%
01:00 +14°C° 0.1 mm 4 m/S 728 mmHg 97%
02:00 +13°C° 0.1 mm 5 m/S 729 mmHg 97%
03:00 +13°C° 0.2 mm 4 m/S 729 mmHg 97%
04:00 +13°C° 0.2 mm 4 m/S 730 mmHg 96%
05:00 +13°C° 0.2 mm 4 m/S 731 mmHg 96%
06:00 +13°C° 0 mm 4 m/S 731 mmHg 93%
07:00 +14°C° 0 mm 3 m/S 731 mmHg 91%
08:00 +14°C° 0 mm 3 m/S 732 mmHg 89%
09:00 +17°C° 0.1 mm 4 m/S 732 mmHg 81%
10:00 +18°C° 0.1 mm 4 m/S 732 mmHg 73%
11:00 +20°C° 0.1 mm 4 m/S 732 mmHg 65%
12:00 +20°C° 0.4 mm 4 m/S 733 mmHg 67%
13:00 +20°C° 0.4 mm 4 m/S 733 mmHg 68%
14:00 +20°C° 0.4 mm 4 m/S 733 mmHg 70%
15:00 +19°C° 0.2 mm 4 m/S 733 mmHg 68%
16:00 +19°C° 0.2 mm 4 m/S 733 mmHg 66%
17:00 +19°C° 0.2 mm 4 m/S 733 mmHg 64%
18:00 +18°C° 0 mm 3 m/S 733 mmHg 70%
19:00 +17°C° 0 mm 3 m/S 734 mmHg 76%
20:00 +14°C° 0 mm 3 m/S 734 mmHg 82%
21:00 +15°C° 0 mm 2 m/S 734 mmHg 87%
22:00 +14°C° 0 mm 2 m/S 734 mmHg 92%
23:00 +13°C° 0 mm 2 m/S 735 mmHg 97%
Mehr zeigen

Wir brauchen deine Erlaubnis

Meteoprog und unser Service Anbieter werden persönliche Daten aufbewahren, so wie Cookies, Geräte Bezeichnung oder ähnliche Technologien von deinem Gerät und Prozess, so wie Persönliche Daten Inhalte und Werbungen, genauso wie social Media und den Verkehr zu analysieren.

  • Aufbewahrung und/oder Zugang zu deiner Geräte Informationen.

    Cookies, Geräte Bezeichnung oder andere Informationen, können aufbewahrt oder Zugang zu deinem Gerät erhalten, für den Grund, der oben angegeben wird.

  • Personalisierte Werbung und Inhalte, Messungen, Einblick in das Publikum und Produkt Entwicklung.

    Werbungen und Inhalte können personalisiert werden, basierend auf ein Profil. Mehr Daten können besser personalisierte Werbungen und Inhalte hinzufügen. Werbung und Inhalte können gezeigt und gemessen werden. Einblicke über das Publikum, welche die Werbung gesehen haben und den Inhalt, können abgeleitet werden. So wie Daten können genutzt werden, um es zu verbessern oder die Benutzer Erfahrung zu verbessern das System und die Software.

Wenn du “Ich stimme zu” klickst, erlaubst du uns, die Cookies zu benutzen die Geräte Bezeichnung, den Web oder ähnliche Technologien zu benutzen. Deine Settings, können in deinem Gerät bei deinem Browser geändert werden.

Für den bestimmten Zweck, berechtigten Interessen beruhen darauf, mehr als auf den Inhalt. Du kannst mehr darüber in unseren Privaten und Cookie Politik lesen.